sat.trackr.live / text

‹ back to catalog

STARLINK-35019

NORAD 65513 · 2025-198X

PAYLOAD ACTIVE UNKNOWN

§ Identity

Operator
Country
US
Launch date
2025-09-05
Launch site
AFETR
Launch vehicle
Mass (kg)
RCS (m²)

Purposes: comms

External: N2YO · Heavens-Above · Gunter

§ Orbital elements

Epoch: 2026-09-20T21:00:43.089408Z

Period
93.85 min
Inclination
53.1612°
Eccentricity
0.0001497
Mean motion
15.34407344 rev/d
Perigee alt
461.7 km
Apogee alt
463.7 km
Semi-major
6,840.8 km
B*
5.1368e-4
RAAN
80.1400°
Arg perigee
234.5897°
Mean anomaly
125.4966°
Rev number
5,856

§ Raw data

STARLINK-350191 65513U 25198X   26263.87549872  .00017023  00000+0  51368-3 0  99922 65513  53.1612  80.1400 0001497 234.5897 125.4966 15.34407344 58564

JSON: /api/v1/satellites/65513 · /tle

For live sub-satellite position, see the globe view (requires WebGL).

§ Visibility from observer

Set your observer location to see the next 7 days of passes ≥ 10°. The values pass through the URL so the page stays shareable.

No JS? Fill the form by hand. The geolocation button needs JavaScript.